Location: Albany
(35.0000°S, 118.0000°E)
Time: 20:48:37
(UTC-04:00)

Amateur Radio Satellites - All Passes

Search period start: 20 August 2017 20:18
Search period end: 21 August 2017 20:18
Location: Albany, 35.0000°S, 118.0000°E

Satellite Date Start Highest point End Downlink Frequencies (MHz)
Time Altitude Azimuth
Max Valier Satellite 20 Aug 20:22:56 20:25:36 19° 110° (ESE) 20:28:17 145.860
AO-73 20 Aug 20:25:26 20:29:45 42° 278° (W) 20:34:11 145.935
DELFI C3 20 Aug 20:31:25 20:34:57 32° 107° (ESE) 20:38:32 145.870
PCSat 20 Aug 20:44:44 20:47:26 14° 77° (ENE) 20:50:10 145.827
UNISAT 6 20 Aug 20:57:58 21:00:37 15° 88° (E) 21:03:13 437.425
SO-50 20 Aug 21:08:05 21:09:39 12° 74° (ENE) 21:11:14 436.795
PRISM 20 Aug 21:09:48 21:10:52 11° 88° (E) 21:11:55 437.425
Oscar 11 20 Aug 21:12:37 21:15:28 17° 274° (W) 21:18:22 .
EO-88 20 Aug 21:16:25 21:20:06 74° 103° (ESE) 21:23:51 145.990 - 145.960
TIGRISAT 20 Aug 21:31:49 21:36:04 33° 83° (E) 21:40:10 435.000
FO-29 20 Aug 21:47:43 21:55:16 77° 255° (WSW) 22:03:09 435.910
RS-15 20 Aug 21:56:02 22:05:32 32° 285° (WNW) 22:15:28 29.354- 29.394
Max Valier Satellite 20 Aug 21:56:09 21:59:14 24° 276° (W) 22:02:22 145.860
DELFI C3 20 Aug 22:07:34 22:09:47 14° 273° (W) 22:12:00 145.870
ESTCUBE 1 20 Aug 22:09:44 22:13:32 27° 110° (ESE) 22:17:22 437.505/2401.250
PCSat 20 Aug 22:24:51 22:30:12 64° 242° (WSW) 22:35:37 145.827
UNISAT 6 20 Aug 22:33:02 22:37:31 45° 253° (WSW) 22:41:52 437.425
PRISM 20 Aug 22:42:20 22:46:22 48° 254° (WSW) 22:50:22 437.425
SO-50 20 Aug 22:44:47 22:49:30 66° 239° (WSW) 22:54:18 436.795
LO-87 20 Aug 22:47:05 22:50:38 60° 280° (W) 22:54:16 145.935 - 145.965
NANOSAT C BR1 20 Aug 23:08:00 23:10:46 16° 86° (E) 23:13:29 145.865
TIGRISAT 20 Aug 23:08:59 23:12:28 21° 248° (WSW) 23:15:53 435.000
POLYITAN 1 20 Aug 23:12:04 23:15:22 21° 85° (E) 23:18:36 437.675
AIST 2D 20 Aug 23:15:11 23:18:42 64° 80° (E) 23:22:10 435.315
QB50P2 20 Aug 23:26:38 23:30:36 34° 82° (E) 23:34:31 145.880/145.840
EO-79 20 Aug 23:27:27 23:31:20 32° 83° (E) 23:35:10 145.935-145.965
FO-29 20 Aug 23:35:37 23:39:11 14° 239° (WSW) 23:42:51 435.910
M-CUBED/EXP-1 PRIME 20 Aug 23:38:22 23:42:02 64° 74° (ENE) 23:45:58 437.505
50 SAT 20 Aug 23:38:55 23:40:40 14° 111° (ESE) 23:42:26 437.505
ESTCUBE 1 20 Aug 23:46:34 23:50:15 24° 276° (W) 23:53:56 437.505/2401.250
VELOX 1 20 Aug 23:52:56 23:57:19 76° 103° (ESE) 00:01:47 145.980
DX 1 20 Aug 23:56:19 23:59:38 22° 111° (ESE) 00:02:59 434.975-435.025
DUCHIFAT 1 20 Aug 23:57:24 00:01:40 58° 79° (E) 00:05:50 145.980
BUGSAT 1 20 Aug 23:59:35 00:02:03 15° 87° (E) 00:04:28 437.445
SPROUT 21 Aug 00:01:58 00:06:14 65° 280° (W) 00:10:34 437.525
NO-84 21 Aug 00:25:49 00:30:03 89° 236° (WSW) 00:34:31 435.350 FM
NANOSAT C BR1 21 Aug 00:42:37 00:46:32 34° 252° (WSW) 00:50:24 145.865
Gurwin Techsat 1B 21 Aug 00:45:35 00:48:23 14° 88° (E) 00:51:09 435.225
POLYITAN 1 21 Aug 00:47:24 00:51:05 28° 250° (WSW) 00:54:43 437.675
QB50P2 21 Aug 01:03:14 01:06:04 17° 248° (WSW) 01:08:53 145.880/145.840
EO-79 21 Aug 01:03:49 01:06:49 19° 248° (WSW) 01:09:48 145.935-145.965
UKube-1 21 Aug 01:09:42 01:14:01 81° 283° (WNW) 01:18:25 .
50 SAT 21 Aug 01:10:15 01:13:04 25° 277° (W) 01:15:56 437.505
Oscar 19 21 Aug 01:10:53 01:15:46 41° 81° (E) 01:20:36 437.125/150
YUBILEINY 21 Aug 01:18:15 01:24:46 22° 111° (ESE) 01:31:12 435.215
MOZHAYETS 4 21 Aug 01:24:35 01:25:59 11° 116° (ESE) 01:27:23
DX 1 21 Aug 01:31:53 01:35:36 28° 277° (W) 01:39:23 434.975-435.025
BUGSAT 1 21 Aug 01:33:31 01:37:30 38° 252° (WSW) 01:41:27 437.445
DUCHIFAT 1 21 Aug 01:35:44 01:36:45 11° 245° (WSW) 01:37:45 145.980
BEESAT 21 Aug 01:37:46 01:41:19 21° 113° (ESE) 01:44:54 436.000
AO-7 21 Aug 02:04:04 02:08:14 14° 88° (E) 02:12:21 .
NO-84 21 Aug 02:05:26 02:08:11 16° 210° (SSW) 02:10:57 435.350 FM
ITUPSAT 1 21 Aug 02:10:50 02:15:26 45° 108° (ESE) 02:20:05 437.325
Gurwin Techsat 1B 21 Aug 02:23:22 02:28:40 60° 253° (WSW) 02:33:55 435.225
ITAMSAT 1 21 Aug 02:31:48 02:34:48 15° 87° (E) 02:37:48 435.822/435.867
Oscar 19 21 Aug 02:50:58 02:54:45 21° 246° (WSW) 02:58:30 437.125/150
MOZHAYETS 4 21 Aug 02:57:52 03:02:30 66° 281° (W) 03:07:12
KKS-1 21 Aug 03:11:31 03:13:44 14° 115° (ESE) 03:15:56 437.445
YUBILEINY 21 Aug 03:13:26 03:22:18 72° 273° (W) 03:31:04 435.215
BEESAT 21 Aug 03:14:23 03:18:47 36° 278° (W) 03:23:16 436.000
CUBESAT XI-V 21 Aug 03:18:08 03:22:26 37° 108° (ESE) 03:26:44 437.345
STARS 21 Aug 03:49:43 03:52:05 14° 114° (ESE) 03:54:28 437.465
ITUPSAT 1 21 Aug 03:50:28 03:53:26 16° 273° (W) 03:56:25 437.325
AO-7 21 Aug 03:53:25 04:01:53 87° 73° (ENE) 04:10:17 .
ITAMSAT 1 21 Aug 04:09:23 04:14:33 55° 253° (WSW) 04:19:40 435.822/435.867
AO-85 21 Aug 04:13:49 04:18:48 46° 66° (ENE) 04:23:57 145.980
BEESAT 3 21 Aug 04:23:52 04:27:39 86° 62° (ENE) 04:31:28 437.485
BEESAT 2 21 Aug 04:38:08 04:41:40 33° 66° (ENE) 04:45:12 435.950
KKS-1 21 Aug 04:45:29 04:49:47 49° 280° (W) 04:54:10 437.445
CUBESAT XI-V 21 Aug 04:56:39 04:59:52 18° 274° (W) 05:03:06 437.345
XW-2F 21 Aug 05:13:29 05:14:42 11° 88° (E) 05:15:55 145.980 - 146.000
YUBILEINY 21 Aug 05:16:50 05:17:22 10° 255° (WSW) 05:17:54 435.215
DOVE 4 21 Aug 05:18:19 05:23:18 61° 79° (E) 05:28:28 437.250
STARS 21 Aug 05:23:45 05:27:58 45° 280° (W) 05:32:16 437.465
STRAND 1 21 Aug 05:32:51 05:35:36 15° 116° (ESE) 05:38:22 437.568
KAITUO 1B 21 Aug 05:37:07 05:39:47 18° 85° (E) 05:42:25 145.475/437.950
AO-7 21 Aug 05:48:07 05:53:33 19° 235° (SW) 05:59:00 .
AO-85 21 Aug 05:55:15 05:59:30 24° 230° (SW) 06:03:49 145.980
LilacSat-2 21 Aug 05:59:05 06:02:51 55° 80° (E) 06:06:34 437.200
XW-2D 21 Aug 06:03:04 06:06:52 61° 79° (E) 06:10:34 145.860 - 145.880
NUDT-PHONESAT 21 Aug 06:08:49 06:12:27 48° 81° (E) 06:16:01 437.300
XW-2B 21 Aug 06:14:05 06:17:55 84° 79° (E) 06:21:41 145.730 - 145.750
BEESAT 2 21 Aug 06:16:52 06:19:28 17° 231° (SW) 06:22:06 435.950
CUTE-I 21 Aug 06:19:04 06:24:29 66° 78° (ENE) 06:29:51 437.470
XW-2C 21 Aug 06:33:17 06:37:00 51° 255° (WSW) 06:40:39 145.795 - 145.815
XW-2F 21 Aug 06:45:26 06:48:58 37° 254° (WSW) 06:52:26 145.980 - 146.000
DOVE 4 21 Aug 06:57:53 07:00:28 14° 246° (WSW) 07:03:06 437.250
NO-84 21 Aug 07:03:21 07:06:20 18° 148° (SSE) 07:09:11 435.350 FM
XW-2A 21 Aug 07:07:58 07:10:48 23° 84° (E) 07:13:34 145.665 - 145.685
HO-68 21 Aug 07:08:42 07:15:51 57° 78° (ENE) 07:22:53 435.675
STRAND 1 21 Aug 07:09:06 07:14:11 61° 281° (W) 07:19:21 437.568
AAUSAT CUBESAT 2 21 Aug 07:09:12 07:11:24 14° 87° (E) 07:13:36 437.432
KAITUO 1B 21 Aug 07:10:43 07:13:41 23° 251° (WSW) 07:16:38 145.475/437.950
CUTE 1.7 + AOD 2 21 Aug 07:10:49 07:15:03 61° 79° (E) 07:19:13 437.475
PCSat 21 Aug 07:16:00 07:21:18 50° 120° (ESE) 07:26:32 145.827
UWE-3 21 Aug 07:17:03 07:20:32 21° 86° (E) 07:23:54 435.000/436.395/437.385
SO-50 21 Aug 07:19:24 07:23:58 44° 124° (ESE) 07:28:25 436.795
CUBEBUG 2 21 Aug 07:23:55 07:28:29 45° 82° (E) 07:32:52 437.445
Tancredo 1 21 Aug 07:33:24 07:36:01 30° 48° (NE) 07:38:40 437.200
O/OREOS (USA 219) 21 Aug 07:41:35 07:43:38 13° 82° (E) 07:45:42 437.305
ZACube-1 21 Aug 07:55:55 07:59:52 30° 84° (E) 08:03:41 437.345
FO-29 21 Aug 07:57:55 08:02:36 30° 114° (ESE) 08:07:43 435.910
SEEDS 21 Aug 07:58:14 08:02:24 57° 255° (WSW) 08:06:30 437.485
CUTE-I 21 Aug 08:01:03 08:03:53 15° 243° (WSW) 08:06:43 437.470
AO-73 21 Aug 08:16:41 08:21:00 47° 81° (E) 08:25:09 145.935
TIGRISAT 21 Aug 08:27:28 08:30:53 21° 112° (ESE) 08:34:22 435.000
NO-84 21 Aug 08:40:10 08:44:15 61° 309° (NW) 08:47:58 435.350 FM
XW-2A 21 Aug 08:41:18 08:43:17 15° 249° (WSW) 08:45:14 145.665 - 145.685
AAUSAT CUBESAT 2 21 Aug 08:43:06 08:46:59 37° 253° (WSW) 08:50:48 437.432
ISS 21 Aug 08:45:37 08:48:47 47° 47° (NE) 08:52:00 437.550
UWE-3 21 Aug 08:52:55 08:56:58 30° 251° (WSW) 09:00:53 435.000/436.395/437.385
nSIGHT-1 21 Aug 08:53:33 08:56:46 64° 45° (NE) 09:00:02 .
HO-68 21 Aug 08:57:24 09:03:02 25° 242° (WSW) 09:08:38 435.675
PCSat 21 Aug 09:00:34 09:04:13 18° 285° (WNW) 09:07:51 145.827
SO-50 21 Aug 09:01:00 09:04:01 17° 289° (WNW) 09:07:00 436.795
Oscar 11 21 Aug 09:01:16 09:05:38 71° 256° (WSW) 09:09:55 .
CUBEBUG 2 21 Aug 09:01:47 09:04:37 16° 246° (WSW) 09:07:23 437.445
Tancredo 1 21 Aug 09:09:03 09:11:14 19° 213° (SSW) 09:13:27 437.200
O/OREOS (USA 219) 21 Aug 09:18:02 09:22:31 50° 247° (WSW) 09:27:04 437.305
UNISAT 6 21 Aug 09:27:34 09:32:10 79° 281° (WNW) 09:36:55 437.425
PRISM 21 Aug 09:27:42 09:31:46 71° 104° (ESE) 09:35:53 437.425
Max Valier Satellite 21 Aug 09:28:41 09:32:11 36° 82° (E) 09:35:37 145.860
ZACube-1 21 Aug 09:32:35 09:35:54 20° 248° (WSW) 09:39:07 437.345
FO-29 21 Aug 09:42:55 09:47:37 30° 275° (W) 09:52:44 435.910
DELFI C3 21 Aug 09:45:33 09:49:34 88° 80° (E) 09:53:34 145.870
AIST 2D 21 Aug 09:47:26 09:49:25 14° 111° (ESE) 09:51:23 435.315
AO-73 21 Aug 09:54:32 09:56:44 14° 246° (WSW) 09:58:53 145.935
RS-15 21 Aug 10:02:03 10:12:41 57° 69° (ENE) 10:23:12 29.354- 29.394
TIGRISAT 21 Aug 10:03:05 10:07:16 34° 277° (W) 10:11:35 435.000
POLYITAN 1 21 Aug 10:03:19 10:04:33 11° 115° (ESE) 10:05:47 437.675
JUGNU 21 Aug 10:09:59 10:13:22 16° 9° (N) 10:16:46 437.505
QB50P2 21 Aug 10:16:37 10:19:31 18° 112° (ESE) 10:22:27 145.880/145.840
EO-79 21 Aug 10:17:24 10:20:07 17° 113° (ESE) 10:22:51 145.935-145.965
LO-87 21 Aug 10:18:38 10:20:28 13° 87° (E) 10:22:18 145.935 - 145.965
M-CUBED/EXP-1 PRIME 21 Aug 10:21:45 10:25:01 40° 110° (ESE) 10:28:11 437.505
EO-88 21 Aug 10:21:53 10:25:29 50° 255° (WSW) 10:29:02 145.990 - 145.960
ISS 21 Aug 10:23:04 10:25:27 18° 210° (SSW) 10:27:49 437.550
nSIGHT-1 21 Aug 10:31:28 10:33:26 15° 209° (SSW) 10:35:26 .
DUCHIFAT 1 21 Aug 10:45:56 10:49:33 27° 109° (ESE) 10:53:12 145.980
Max Valier Satellite 21 Aug 11:04:09 11:05:37 12° 247° (WSW) 11:07:05 145.860
AIST 2D 21 Aug 11:19:12 11:22:18 27° 277° (W) 11:25:27 435.315
NANOSAT C BR1 21 Aug 11:30:24 11:34:39 75° 281° (W) 11:38:59 145.865
POLYITAN 1 21 Aug 11:35:33 11:39:46 57° 280° (W) 11:44:03 437.675
ESTCUBE 1 21 Aug 11:41:09 11:45:43 89° 253° (WSW) 11:50:14 437.505/2401.250
VELOX 1 21 Aug 11:47:06 11:50:15 19° 86° (E) 11:53:22 145.980
LO-87 21 Aug 11:50:39 11:53:57 30° 253° (WSW) 11:57:11 145.935 - 145.965
QB50P2 21 Aug 11:51:08 11:55:00 33° 278° (W) 11:58:57 145.880/145.840
SPROUT 21 Aug 11:51:16 11:54:58 26° 84° (E) 11:58:36 437.525
EO-79 21 Aug 11:51:35 11:55:31 36° 278° (W) 11:59:33 145.935-145.965
JUGNU 21 Aug 11:57:45 12:01:39 18° 358° (N) 12:05:34 437.505
Gurwin Techsat 1B 21 Aug 12:03:20 12:06:49 18° 115° (ESE) 12:10:20 435.225
SRMSAT 21 Aug 12:11:00 12:13:39 13° 13° (NNE) 12:16:20 437.500
RS-15 21 Aug 12:15:23 12:25:21 39° 228° (SW) 12:35:23 29.354- 29.394
BUGSAT 1 21 Aug 12:19:00 12:23:09 89° 283° (WNW) 12:27:27 437.445
DUCHIFAT 1 21 Aug 12:21:55 12:25:09 21° 275° (W) 12:28:26 145.980
Oscar 19 21 Aug 12:24:19 12:29:13 43° 108° (ESE) 12:34:09 437.125/150
50 SAT 21 Aug 12:34:49 12:37:25 20° 84° (E) 12:40:02 437.505
BEESAT 3 21 Aug 12:44:11 12:46:49 17° 129° (SE) 12:49:27 437.485
AO-85 21 Aug 12:49:51 12:53:16 18° 133° (SE) 12:56:31 145.980
AO-7 21 Aug 13:00:02 13:05:04 18° 126° (SE) 13:10:08 .
UKube-1 21 Aug 13:00:39 13:04:00 21° 84° (E) 13:07:19 .
DX 1 21 Aug 13:22:25 13:26:49 62° 79° (E) 13:31:10 434.975-435.025
VELOX 1 21 Aug 13:22:40 13:26:44 34° 252° (WSW) 13:30:44 145.980
SPROUT 21 Aug 13:27:16 13:30:40 22° 249° (WSW) 13:34:02 437.525
Gurwin Techsat 1B 21 Aug 13:41:06 13:46:17 52° 280° (W) 13:51:32 435.225
ITAMSAT 1 21 Aug 13:46:35 13:50:01 18° 115° (ESE) 13:53:29 435.822/435.867
JUGNU 21 Aug 13:47:09 13:49:56 13° 348° (NNW) 13:52:42 437.505
SRMSAT 21 Aug 13:58:05 14:02:06 18° 3° (N) 14:06:06 437.500
Tancredo 1 21 Aug 13:59:49 14:00:41 11° 153° (SSE) 14:01:33 437.200
Oscar 19 21 Aug 14:05:01 14:08:39 19° 274° (W) 14:12:20 437.125/150
50 SAT 21 Aug 14:07:34 14:09:55 17° 250° (WSW) 14:12:15 437.505
YUBILEINY 21 Aug 14:15:18 14:22:16 27° 97° (E) 14:29:16 435.215
ITUPSAT 1 21 Aug 14:16:03 14:18:49 15° 87° (E) 14:21:32 437.325
BEESAT 3 21 Aug 14:20:57 14:24:26 32° 294° (WNW) 14:27:55 437.485
AO-85 21 Aug 14:29:22 14:34:05 50° 294° (WNW) 14:38:25 145.980
BEESAT 2 21 Aug 14:35:42 14:39:34 82° 298° (WNW) 14:43:27 435.950
UKube-1 21 Aug 14:36:13 14:39:58 28° 250° (WSW) 14:43:41 .
RS-15 21 Aug 14:37:36 14:42:14 13° 195° (SSW) 14:46:53 29.354- 29.394
AO-7 21 Aug 14:48:21 14:56:39 88° 108° (ESE) 15:05:04 .
MOZHAYETS 4 21 Aug 14:56:24 15:00:42 36° 82° (E) 15:04:55
DX 1 21 Aug 15:01:25 15:02:24 11° 244° (WSW) 15:03:24 434.975-435.025
ISS 21 Aug 15:16:36 15:18:54 17° 150° (SSE) 15:21:12 437.550
BEESAT 21 Aug 15:17:14 15:22:06 74° 77° (ENE) 15:26:52 436.000
CUBESAT XI-V 21 Aug 15:20:05 15:21:37 11° 89° (E) 15:23:10 437.345
ITAMSAT 1 21 Aug 15:23:59 15:29:01 50° 280° (W) 15:34:08 435.822/435.867
nSIGHT-1 21 Aug 15:24:04 15:26:36 20° 148° (SSE) 15:29:06 .
Tancredo 1 21 Aug 15:33:17 15:36:15 86° 317° (NW) 15:39:12 437.200
SRMSAT 21 Aug 15:46:55 15:50:34 16° 352° (N) 15:54:12 437.500
ITUPSAT 1 21 Aug 15:52:10 15:56:50 48° 252° (WSW) 16:01:26 437.325
YUBILEINY 21 Aug 16:09:55 16:18:25 56° 259° (W) 16:27:06 435.215
DOVE 4 21 Aug 16:21:11 16:25:00 36° 108° (ESE) 16:28:58 437.250
MOZHAYETS 4 21 Aug 16:34:19 16:37:31 19° 247° (WSW) 16:40:42
LilacSat-2 21 Aug 16:38:24 16:41:04 18° 110° (ESE) 16:43:45 437.200
KKS-1 21 Aug 16:39:34 16:43:50 39° 81° (E) 16:48:03 437.445
XW-2D 21 Aug 16:41:38 16:44:24 19° 110° (ESE) 16:47:09 145.860 - 145.880
AO-7 21 Aug 16:45:41 16:50:14 16° 272° (W) 16:54:51 .
NUDT-PHONESAT 21 Aug 16:45:55 16:48:01 14° 111° (ESE) 16:50:07 437.300
XW-2B 21 Aug 16:52:15 16:55:24 24° 109° (ESE) 16:58:34 145.730 - 145.750
ISS 21 Aug 16:52:20 16:55:36 52° 314° (NW) 16:58:51 437.550
CUBESAT XI-V 21 Aug 16:54:43 16:59:17 56° 255° (WSW) 17:03:49 437.345
RS-15 21 Aug 16:55:28 17:01:42 16° 156° (SSE) 17:08:02 29.354- 29.394
BEESAT 21 Aug 16:58:09 16:59:09 11° 242° (WSW) 17:00:10 436.000
nSIGHT-1 21 Aug 16:59:58 17:03:05 39° 313° (NW) 17:06:10 .
XW-2C 21 Aug 17:10:46 17:14:26 42° 106° (ESE) 17:18:09 145.795 - 145.815
STARS 21 Aug 17:16:10 17:20:25 40° 81° (E) 17:24:36 437.465
XW-2F 21 Aug 17:22:12 17:25:58 57° 104° (ESE) 17:29:48 145.980 - 146.000
HO-68 21 Aug 17:34:15 17:40:21 31° 116° (ESE) 17:46:29 435.675
CUTE-I 21 Aug 17:37:27 17:42:46 78° 105° (ESE) 17:48:11 437.470
KAITUO 1B 21 Aug 17:46:06 17:49:55 85° 282° (WNW) 17:53:46 145.475/437.950
O/OREOS (USA 219) 21 Aug 17:53:27 17:56:14 16° 121° (ESE) 17:58:58 437.305
CUTE 1.7 + AOD 2 21 Aug 18:00:14 18:03:53 28° 109° (ESE) 18:07:35 437.475
DOVE 4 21 Aug 18:00:36 18:02:53 14° 272° (W) 18:05:11 437.250
LilacSat-2 21 Aug 18:11:48 18:15:07 26° 276° (W) 18:18:27 437.200
UWE-3 21 Aug 18:11:52 18:13:54 13° 115° (ESE) 18:15:58 435.000/436.395/437.385
XW-2D 21 Aug 18:15:10 18:18:22 25° 276° (W) 18:21:36 145.860 - 145.880
KKS-1 21 Aug 18:17:05 18:20:02 17° 247° (WSW) 18:22:57 437.445
NUDT-PHONESAT 21 Aug 18:18:10 18:21:35 31° 277° (W) 18:25:01 437.300
CUBEBUG 2 21 Aug 18:18:34 18:22:23 26° 110° (ESE) 18:26:21 437.445
XW-2B 21 Aug 18:26:43 18:29:30 19° 275° (W) 18:32:18 145.730 - 145.750
SEEDS 21 Aug 18:45:58 18:50:08 60° 104° (ESE) 18:54:20 437.485
XW-2C 21 Aug 18:47:58 18:48:48 11° 272° (W) 18:49:37 145.795 - 145.815
ZACube-1 21 Aug 18:48:48 18:51:51 18° 113° (ESE) 18:54:56 437.345
STARS 21 Aug 18:53:33 18:56:23 17° 247° (WSW) 18:59:11 437.465
RS-15 21 Aug 19:06:48 19:17:40 51° 127° (SE) 19:28:58 29.354- 29.394
XW-2A 21 Aug 19:07:22 19:10:51 80° 282° (WNW) 19:14:22 145.665 - 145.685
AO-73 21 Aug 19:08:41 19:12:27 26° 110° (ESE) 19:16:17 145.935
HO-68 21 Aug 19:20:54 19:27:44 46° 280° (W) 19:34:41 435.675
CUTE-I 21 Aug 19:22:29 19:23:20 10° 270° (W) 19:24:12 437.470
STRAND 1 21 Aug 19:22:54 19:28:05 61° 79° (E) 19:33:11 437.568
AAUSAT CUBESAT 2 21 Aug 19:29:01 19:33:10 86° 100° (E) 19:37:22 437.432
O/OREOS (USA 219) 21 Aug 19:31:30 19:35:52 44° 285° (WNW) 19:40:09 437.305
CUTE 1.7 + AOD 2 21 Aug 19:36:30 19:39:41 20° 275° (W) 19:42:53 437.475
UWE-3 21 Aug 19:45:14 19:49:46 58° 280° (W) 19:54:26 435.000/436.395/437.385
Oscar 11 21 Aug 19:52:13 19:56:30 56° 106° (ESE) 20:00:49 .
CUBEBUG 2 21 Aug 19:55:00 19:58:52 26° 275° (W) 20:02:52 437.445
Max Valier Satellite 21 Aug 20:06:20 20:07:31 11° 113° (ESE) 20:08:41 145.860
